GOES 15 1 36411U 10008A 21063.66591549 .00000045 00000-0 00000-0 0 9990 2 36411 0.1759 253.1582 0003956 139.0316 241.8507 1.00266985 40324 DELTA 4 R/B 1 36412U 10008B 21063.82581894 -.00000048 00000-0 00000-0 0 9995 2 36412 11.5329 239.6985 5261740 13.4244 127.0478 1.92898131 77469